Location: Arborea
(39.7744°N, 8.5819°E)
Time: 03:41:47
(UTC+00:00)

USA 229 - Pass Details

Date: 06 June 2022
Orbit: 938 x 1274 km, 63.4° (Epoch: 24 May)

Event Time Altitude Azimuth Distance (km) Brightness Sun altitude
Rises 21:38:11 0° 325° (NW) 4,004 8.1 -22.8°
Reaches altitude 10° 21:40:49 10° 325° (NW) 3,085 7.2 -23.0°
Maximum altitude 21:48:19 84° 238° (WSW) 1,238 3.9 -23.6°
Enters shadow 21:51:15 43° 155° (SSE) 1,677 4.2 -23.8°
